Content
SEND FEEDBACK

Daily
Averages
Monthly
Summary
United States of America

FAYETTEVILLE, TENNESSEE


Home > North America > United States > Tennessee
Elevation: 700 feet     Latitude: 35 10N     Longitude: 086 33W

WEATHER
 
SELECT A DAY
Number of Records: 293,010;   Date Range: 4/22/02 - 4/17/14
 
SHARE

PRINT THIS DATA

[ ← Previous Day ]
WEATHER ALMANAC - AUGUST 26, 2013
[ Next Day → ]
[ °C ]   °F
Weather ElementAverageHighLow
Temperature71.4 °F82.4 °F (2:15 pm)60.8 °F (5:15 am)
Dewpoint58.2 °F64.4 °F (8:55 pm)51.8 °F (11:35 am)
Humidity67.3 %94 % (1:15 am)35 % (2:15 pm)
Barometer30.26 in30.33 in (9:55 am)30.18 in (6:35 pm)
Wind Speed0.6 mph4.6 mph (2:35 am)
Weather ElementAverage
Visibility9.6 mi
Wind DirectionNNE (16.3 °)

Weather ElementTotal
Precipitation---
Cooling Degree Days6.6 (Base 65)
Growing Degree Days21.6 (Base 50)
Averaged from 71 records on August 26, 2013
WEATHER CONDITIONS BREAKOUT
WIND DIRECTION BREAKOUT
WEATHER BY HOUR - AUGUST 26, 2013
[ °C ]   °F
Local TimeTemperatureDewpointHumidityBarometerVisibilityWind DirectionWind SpeedGust SpeedPrecipitationEventsConditions
12:35 AM64.4 °F60.8 °F88 %30.30 in10.0 miCalmClear
12:55 AM64.4 °F60.8 °F88 %30.29 in7.0 miCalmClear
1:15 AM62.6 °F60.8 °F94 %30.29 in10.0 miCalmClear
1:35 AM62.6 °F60.8 °F94 %30.29 in7.0 miCalmClear
1:55 AM62.6 °F60.8 °F94 %30.29 in7.0 miCalmClear
2:15 AM62.6 °F60.8 °F94 %30.28 in5.0 miCalmClear
2:35 AM64.4 °F60.8 °F88 %30.28 in10.0 miSE (130°)4.6 mphClear
2:55 AM64.4 °F59.0 °F83 %30.28 in10.0 miCalmClear
3:15 AM62.6 °F60.8 °F94 %30.29 in7.0 miCalmClear
3:35 AM62.6 °F59.0 °F88 %30.29 in10.0 miCalmClear
3:55 AM62.6 °F60.8 °F94 %30.29 in10.0 miCalmClear
4:15 AM64.4 °F59.0 °F83 %30.29 in10.0 miCalmClear
4:35 AM64.4 °F59.0 °F83 %30.28 in10.0 miCalmClear
4:55 AM62.6 °F59.0 °F88 %30.29 in10.0 miCalmClear
5:15 AM60.8 °F57.2 °F88 %30.29 in10.0 miCalmClear
5:35 AM60.8 °F59.0 °F94 %30.29 in7.0 miCalmClear
5:55 AM60.8 °F59.0 °F94 %30.29 in10.0 miCalmClear
6:15 AM60.8 °F59.0 °F94 %30.30 in10.0 miCalmClear
6:35 AM62.6 °F59.0 °F88 %30.31 in10.0 miCalmClear
6:55 AM60.8 °F59.0 °F94 %30.30 in10.0 miCalmClear
7:15 AM62.6 °F59.0 °F88 %30.31 in10.0 miCalmClear
7:35 AM64.4 °F60.8 °F88 %30.31 in10.0 miCalmClear
7:55 AM66.2 °F59.0 °F78 %30.31 in10.0 miCalmClear
8:15 AM68.0 °F60.8 °F78 %30.31 in10.0 miCalmClear
8:35 AM69.8 °F60.8 °F73 %30.31 in10.0 miCalmClear
8:55 AM71.6 °F60.8 °F69 %30.32 in10.0 miCalmClear
9:15 AM71.6 °F59.0 °F64 %30.32 in10.0 miCalmClear
9:35 AM73.4 °F59.0 °F61 %30.32 in10.0 miCalmClear
9:55 AM75.2 °F55.4 °F50 %30.33 in10.0 miCalmClear
10:15 AM77.0 °F53.6 °F44 %30.33 in10.0 miSSE (150°)3.5 mphClear
10:35 AM77.0 °F55.4 °F47 %30.33 in10.0 miSE (140°)3.5 mphClear
10:55 AM77.0 °F53.6 °F44 %30.33 in10.0 miSSE (160°)4.6 mphClear
11:15 AM78.8 °F53.6 °F42 %30.32 in10.0 miSE (140°)3.5 mphClear
11:35 AM78.8 °F51.8 °F39 %30.32 in10.0 miCalmClear
11:55 AM78.8 °F51.8 °F39 %30.31 in10.0 miCalmScattered Clouds
12:15 PM80.6 °F51.8 °F37 %30.30 in10.0 miCalmScattered Clouds
12:35 PM80.6 °F51.8 °F37 %30.29 in10.0 miENE (60°)3.5 mphClear
12:55 PM80.6 °F51.8 °F37 %30.29 in10.0 miCalmClear
1:15 PM80.6 °F51.8 °F37 %30.28 in10.0 miENE (70°)4.6 mphClear
1:35 PM80.6 °F51.8 °F37 %30.27 in10.0 miCalmScattered Clouds
1:55 PM80.6 °F53.6 °F39 %30.26 in10.0 miCalmScattered Clouds
2:15 PM82.4 °F51.8 °F35 %30.26 in10.0 miEast (100°)3.5 mphScattered Clouds
2:35 PM80.6 °F51.8 °F37 %30.25 in7.0 miCalmMostly Cloudy
2:55 PM80.6 °F53.6 °F39 %30.24 in10.0 miNNE (20°)4.6 mphScattered Clouds
3:15 PM82.4 °F53.6 °F37 %30.23 in10.0 miCalmScattered Clouds
3:35 PM82.4 °F53.6 °F37 %30.22 in10.0 miCalmScattered Clouds
3:55 PM82.4 °F53.6 °F37 %30.21 in10.0 miSouth (190°)3.5 mphClear
4:15 PM82.4 °F53.6 °F37 %30.21 in10.0 miCalmScattered Clouds
4:35 PM82.4 °F53.6 °F37 %30.20 in10.0 miCalmScattered Clouds
4:55 PM82.4 °F53.6 °F37 %30.20 in10.0 miCalmClear
5:15 PM82.4 °F51.8 °F35 %30.20 in10.0 miCalmClear
5:35 PM80.6 °F53.6 °F39 %30.20 in10.0 miCalmScattered Clouds
5:55 PM78.8 °F59.0 °F51 %30.19 in10.0 miCalmScattered Clouds
6:15 PM78.8 °F62.6 °F57 %30.19 in10.0 miCalmScattered Clouds
6:35 PM78.8 °F60.8 °F54 %30.18 in10.0 miCalmClear
6:55 PM77.0 °F62.6 °F61 %30.18 in10.0 miCalmClear
7:15 PM73.4 °F62.6 °F69 %30.18 in10.0 miCalmClear
7:35 PM71.6 °F62.6 °F73 %30.18 in10.0 miCalmClear
7:55 PM71.6 °F62.6 °F73 %30.18 in10.0 miCalmClear
8:15 PM71.6 °F62.6 °F73 %30.18 in10.0 miCalmClear
8:35 PM71.6 °F62.6 °F73 %30.18 in10.0 miCalmClear
8:55 PM69.8 °F64.4 °F83 %30.19 in10.0 miCalmClear
9:15 PM68.0 °F62.6 °F83 %30.19 in10.0 miCalmClear
9:35 PM68.0 °F62.6 °F83 %30.19 in10.0 miCalmClear
9:55 PM68.0 °F62.6 °F83 %30.19 in10.0 miCalmClear
10:15 PM66.2 °F62.6 °F88 %30.19 in10.0 miCalmClear
10:35 PM66.2 °F62.6 °F88 %30.19 in10.0 miCalmClear
10:55 PM68.0 °F62.6 °F83 %30.19 in10.0 miCalmClear
11:15 PM66.2 °F62.6 °F88 %30.19 in10.0 miCalmClear
11:35 PM66.2 °F62.6 °F88 %30.19 in10.0 miCalmClear
11:55 PM64.4 °F60.8 °F88 %30.19 in7.0 miCalmClear
Hourly data recorded from KMDQ, located 21.08 miles away from Fayetteville, Tennessee







STORIES FROM OUR PARTNERS